Home   Weather   Zaragoza   Past weeks

Flag for Spain Past Weather in Zaragoza, Spain — Yesterday and Last 2 Weeks

Now
39 °F

Passing clouds.


Feels Like: 31 °F
Forecast: 40 / 52 °F
Wind: 14 mph from West

Location: Zaragoza / Aeropuerto

Current Time: Jan 23, 2017 at 7:50:13 am

Latest Report: Jan 23, 2017 at 7:00 am


Visibility: N/A

Pressure: 30.07 "Hg

Humidity: 87%

Dew Point: 36 °F

Location of ZaragozaLocation

Past Weather in Zaragoza — Graph

°F

Zaragoza Temperature Yesterday

Maximum temperature yesterday: 50 °F (at 2:30 pm)
Minimum temperature yesterday: 37 °F (at 6:30 am)
Average temperature yesterday: 44 °F

High & Low Weather Summary for the Past Weeks

 TemperatureHumidityPressure
High63 °F (Jan 11, 1:30 pm)93% (Jan 8, 8:30 am)30.42 "Hg (Jan 8, 8:30 am)
Low25 °F (Jan 8, 8:00 am)21% (Jan 17, 3:00 pm)29.95 "Hg (Jan 10, 2:30 pm)
Average44 °F70%30.17 "Hg
* Reported Jan 8 6:00 am — Jan 23 6:30 am, Zaragoza, Weather by CustomWeather, © 2017

Note: Actual official high and low records may vary slightly from our data, if they occured in-between our weather recording intervals... More about our weather records

Advertising

Zaragoza Weather History for the Previous 24 Hours

Scroll right to see more
 ConditionsComfort  
Time TempWeatherWind HumidityBarometerVisibility
6:30 am
Mon, Jan 23
39 °FPassing clouds.13 mph81%30.07 "HgN/A
6:00 am39 °FPassing clouds.14 mph81%30.07 "HgN/A
5:30 am39 °FPassing clouds.12 mph81%30.07 "HgN/A
5:00 am41 °FPassing clouds.14 mph81%30.07 "HgN/A
4:30 am41 °FPassing clouds.14 mph81%30.07 "HgN/A
4:00 am41 °FPassing clouds.13 mph81%30.07 "HgN/A
3:30 am41 °FPassing clouds.12 mph81%30.09 "HgN/A
3:00 am41 °FPassing clouds.10 mph81%30.07 "HgN/A
2:30 am43 °FPassing clouds.12 mph76%30.07 "HgN/A
2:00 am43 °FPassing clouds.13 mph76%30.07 "HgN/A
1:30 am45 °FPassing clouds.13 mph71%30.07 "HgN/A
1:00 am45 °FPassing clouds.12 mph71%30.09 "HgN/A
12:30 am45 °FPassing clouds.10 mph66%30.09 "HgN/A
12:00 am46 °FPassing clouds.14 mph62%30.09 "HgN/A
11:30 pm
Sun, Jan 22
46 °FPassing clouds.16 mph62%30.07 "HgN/A
11:00 pm46 °FPassing clouds.17 mph62%30.07 "HgN/A
10:30 pm46 °FPassing clouds.17 mph62%30.07 "HgN/A
10:00 pm46 °FPassing clouds.16 mph62%30.07 "HgN/A
9:30 pm46 °FPassing clouds.15 mph62%30.07 "HgN/A
9:00 pm46 °FPassing clouds.16 mph62%30.07 "HgN/A
8:30 pm46 °FPassing clouds.14 mph62%30.07 "HgN/A
8:00 pm48 °FPassing clouds.14 mph58%30.07 "HgN/A
7:30 pm48 °FPassing clouds.14 mph58%30.07 "HgN/A
7:00 pm48 °FPartly cloudy.15 mph54%30.04 "HgN/A
6:30 pm48 °FPartly cloudy.16 mph54%30.04 "HgN/A
6:00 pm48 °FBroken clouds.15 mph58%30.04 "HgN/A
5:30 pm48 °FPartly sunny.17 mph58%30.04 "HgN/A
5:00 pm48 °FPartly sunny.16 mph62%30.04 "HgN/A
4:30 pm48 °FPartly sunny.18 mph62%30.04 "HgN/A
4:00 pm48 °FScattered clouds.21 mph62%30.04 "HgN/A
3:30 pm48 °FScattered clouds.21 mph62%30.04 "HgN/A
3:00 pm50 °FPartly sunny.17 mph58%30.04 "HgN/A
2:30 pm50 °FPartly sunny.20 mph58%30.04 "HgN/A
2:00 pm48 °FScattered clouds.18 mph62%30.04 "HgN/A
1:30 pm48 °FPassing clouds.18 mph62%30.07 "HgN/A
1:00 pm48 °FScattered clouds.17 mph62%30.07 "HgN/A
12:30 pm46 °FScattered clouds.16 mph62%30.07 "HgN/A
12:00 pm45 °FBroken clouds.16 mph66%30.09 "HgN/A
11:30 am45 °FBroken clouds.16 mph66%30.09 "HgN/A
11:00 am43 °FScattered clouds.14 mph71%30.09 "HgN/A
10:30 am43 °FBroken clouds.10 mph66%30.09 "HgN/A
10:00 am41 °FScattered clouds.9 mph70%30.07 "HgN/A
9:30 am39 °FPassing clouds.8 mph75%30.07 "HgN/A
9:00 am39 °FPassing clouds.8 mph75%30.07 "HgN/A
8:30 am39 °FPassing clouds.8 mph75%30.04 "HgN/A
8:00 am39 °FPassing clouds.5 mph75%30.04 "HgN/A
7:30 am39 °FPassing clouds.10 mph75%30.01 "HgN/A
7:00 am39 °FPassing clouds.13 mph75%30.01 "HgN/A
Weather by CustomWeather, © 2017

See weather overviewHow to use our weather pages